Location: Earls Croome
(52.0667°N, 2.2000°W)
Time: 05:05:45
(UTC+00:00)

ALOS - Pass Details

Date: 17 November 2019
Orbit: 683 x 686 km, 97.8° (Epoch: 07 December)

Event Time Altitude Azimuth Distance (km) Brightness Sun altitude
Rises 06:34:48 0° 8° (N) 3,062 5.5 -8.7°
Reaches altitude 10° 06:37:10 10° 1° (N) 2,142 4.6 -8.4°
Maximum altitude 06:41:29 38° 294° (WNW) 1,047 2.7 -7.8°
Drops below altitude 10° 06:45:47 10° 227° (SW) 2,128 4.6 -7.2°
Sets 06:48:07 0° 220° (SW) 3,040 5.4 -6.8°
